Weather History for KRAP - October, 2012

Change the Weather History Date:

Wednesday, October 24, 2012

  Actual Average Record
Temperature  
Mean Temperature 37 °F 45 °F  
Max Temperature 42 °F 58 °F 84 °F (1978)
Min Temperature 31 °F 31 °F 15 °F (1919)
Degree Days  
Heating Degree Days 28 20  
Month to date heating degree days 412 384  
Since 1 July heating degree days 511 608  
Cooling Degree Days 0 0  
Month to date cooling degree days 0 0  
Year to date cooling degree days 937 633  
Moisture  
Dew Point 33 °F    
Average Humidity 88    
Maximum Humidity 100    
Minimum Humidity 75    
Precipitation  
Precipitation 0.31 in 0.04 in 0.31 in (2012)
Month to date precipitation 0.44 1.18  
Year to date precipitation 10.71 15.10  
Snow  
Snow 0.10 in 0.00 in - ()
Month to date snowfall 0.1 0.8  
Since 1 July snowfall 0.1 1.0  
Since 1 September snowfall 0.1 1.0  
Snow Depth 0.00 in    
Sea Level Pressure  
Sea Level Pressure 30.01 in    
Wind  
Wind Speed 14 mph (NNW)    
Max Wind Speed 28 mph    
Max Gust Speed 32 mph    
Visibility 6 miles    
Events Rain , Snow    
T = Trace of Precipitation, MM = Missing Value Source: NWS Daily Summary

Daily Weather History Graph

Daily Weather History Graph

Search for Another Location

Airport or City:

Trip Planner

Search our weather history database for the weather conditions in past years. The results will help you decide how hot, cold, wet, or windy it might be!

Date:

Astronomy

Oct. 24, 2012 Rise Set
Actual Time 7:18 AM MDT 5:53 PM MDT
Civil Twilight 6:49 AM MDT 6:22 PM MDT
Nautical Twilight 6:15 AM MDT 6:56 PM MDT
Astronomical Twilight 5:42 AM MDT 7:29 PM MDT
Moon 3:18 PM MDT (10/24) 2:06 AM MDT (10/24)
Length of Visible Light 11h 33m
Length of Day
10h 34m
Waxing Gibbous, 76% of the Moon is Illuminated
Oct 24
Waxing Gibbous
Oct 29
Full
Nov 6
Last Quarter
Nov 13
New
Nov 20
First Quarter

Hourly Weather History & Observations

Time (MDT) Temp. Windchill Dew Point Humidity Pressure Visibility Wind Dir Wind Speed Gust Speed Precip Events Conditions
12:11 AM 42.8 °F - 39.2 °F 87% 29.89 in 10.0 mi Calm Calm - 0.00 in   Overcast
12:52 AM 42.1 °F 37.7 °F 39.9 °F 92% 29.92 in 10.0 mi NNW 6.9 mph - 0.00 in   Overcast
1:39 AM 42.8 °F 39.3 °F 39.2 °F 87% 29.93 in 10.0 mi North 5.8 mph - 0.00 in Rain Light Rain
1:52 AM 41.0 °F 37.1 °F 39.0 °F 93% 29.96 in 10.0 mi North 5.8 mph - 0.00 in Rain Light Rain
2:23 AM 41.0 °F - 39.2 °F 93% 29.93 in 10.0 mi Calm Calm - 0.02 in Rain Rain
2:52 AM 41.0 °F - 39.0 °F 93% 29.94 in 10.0 mi Calm Calm - 0.04 in Rain Light Rain
3:27 AM 41.0 °F - 39.2 °F 93% 29.94 in 10.0 mi Calm Calm - 0.02 in Rain Light Rain
3:52 AM 41.0 °F - 39.0 °F 93% 29.96 in 10.0 mi Calm Calm - 0.03 in Rain Light Rain
4:14 AM 41.0 °F - 39.2 °F 93% 29.95 in 10.0 mi Calm Calm - 0.01 in Rain Light Rain
4:38 AM 41.0 °F - 39.2 °F 93% 29.95 in 10.0 mi Calm Calm - 0.03 in Rain Light Rain
4:52 AM 41.0 °F 39.0 °F 39.9 °F 96% 29.97 in 10.0 mi South 3.5 mph - 0.04 in Rain Light Rain
5:52 AM 41.0 °F 36.4 °F 39.9 °F 96% 29.98 in 10.0 mi SSE 6.9 mph - 0.02 in Rain Light Rain
6:14 AM 39.2 °F 35.0 °F 39.2 °F 100% 29.95 in 10.0 mi SSE 5.8 mph - 0.00 in Rain Light Rain
6:43 AM 41.0 °F - 39.2 °F 93% 29.95 in 9.0 mi Calm Calm - 0.01 in Rain Light Rain
6:52 AM 41.0 °F - 39.0 °F 93% 29.98 in 3.0 mi Calm Calm - 0.01 in Rain Light Rain
6:59 AM 41.0 °F 39.0 °F 39.2 °F 93% 29.94 in 2.5 mi SSE 3.5 mph - 0.00 in Rain Light Rain
7:06 AM 41.0 °F 39.0 °F 39.2 °F 93% 29.94 in 7.0 mi South 3.5 mph - 0.00 in Rain Light Rain
7:52 AM 41.0 °F - 41.0 °F 100% 29.99 in 10.0 mi Calm Calm - 0.02 in Rain Light Rain
8:52 AM 37.0 °F 26.4 °F 36.0 °F 96% 30.01 in 10.0 mi NNW 20.7 mph - 0.02 in Rain Light Rain
9:13 AM 35.6 °F 24.0 °F 33.8 °F 93% 29.97 in 10.0 mi NNW 23.0 mph 28.8 mph 0.01 in Rain Light Rain
9:52 AM 33.8 °F 20.8 °F 30.2 °F 87% 29.98 in 2.0 mi NNW 26.5 mph 32.2 mph N/A Snow Light Snow
9:55 AM 33.8 °F 21.6 °F 30.2 °F 87% 29.98 in 1.8 mi North 23.0 mph 31.1 mph 0.00 in Snow Light Snow
10:01 AM 33.8 °F 21.3 °F 30.2 °F 87% 29.98 in 2.0 mi North 24.2 mph 31.1 mph 0.01 in Snow Light Snow
10:08 AM 33.8 °F 21.6 °F 30.2 °F 87% 29.98 in 2.5 mi North 23.0 mph - 0.02 in Snow Light Snow
10:16 AM 33.8 °F 22.2 °F 32.0 °F 93% 29.98 in 3.0 mi North 20.7 mph 28.8 mph N/A Snow Light Snow
10:52 AM 34.0 °F 21.5 °F 32.0 °F 92% 30.05 in 4.0 mi North 24.2 mph 29.9 mph 0.02 in Snow Light Snow
11:00 AM 33.8 °F 21.6 °F 32.0 °F 93% 29.99 in 3.0 mi North 23.0 mph 27.6 mph 0.00 in Snow Light Snow
11:36 AM 33.8 °F 22.2 °F 32.0 °F 93% 29.99 in 2.5 mi North 20.7 mph - 0.01 in Snow Light Snow
11:52 AM 33.1 °F 21.9 °F 32.0 °F 96% 30.06 in 2.0 mi North 18.4 mph 25.3 mph 0.01 in Snow Light Snow
12:00 PM 33.8 °F 22.2 °F 32.0 °F 93% 30.00 in 1.8 mi North 20.7 mph - 0.00 in Snow Light Snow
12:52 PM 33.1 °F 21.2 °F 30.9 °F 92% 30.05 in 1.8 mi North 20.7 mph 27.6 mph 0.03 in Snow Light Snow
1:07 PM 32.0 °F 20.1 °F 30.2 °F 93% 29.98 in 1.8 mi North 19.6 mph - 0.00 in Snow Light Snow
1:52 PM 32.0 °F 21.2 °F 30.0 °F 92% 30.04 in 1.8 mi North 16.1 mph 25.3 mph 0.01 in Snow Light Snow
2:01 PM 33.8 °F 23.5 °F 30.2 °F 87% 29.98 in 2.5 mi North 16.1 mph - 0.01 in Snow Light Snow
2:17 PM 33.8 °F 22.8 °F 30.2 °F 87% 29.98 in 3.0 mi North 18.4 mph 25.3 mph 0.01 in Snow Light Snow
2:26 PM 33.8 °F 22.5 °F 30.2 °F 87% 29.98 in 2.5 mi North 19.6 mph 25.3 mph 0.01 in Snow Light Snow
2:52 PM 32.0 °F 19.8 °F 30.0 °F 92% 30.05 in 1.5 mi NNW 20.7 mph 26.5 mph 0.02 in Snow Light Snow
3:00 PM 32.0 °F 19.8 °F 30.2 °F 93% 29.98 in 2.0 mi NNW 20.7 mph 26.5 mph 0.00 in Snow Light Snow
3:30 PM 33.8 °F 22.2 °F 30.2 °F 87% 29.99 in 2.5 mi NNW 20.7 mph 27.6 mph 0.00 in Snow Light Snow
3:39 PM 33.8 °F 23.2 °F 30.2 °F 87% 29.99 in 3.0 mi NNW 17.3 mph 26.5 mph 0.00 in Snow Light Snow
3:52 PM 33.1 °F 21.5 °F 30.9 °F 92% 30.06 in 4.0 mi NNW 19.6 mph 27.6 mph 0.00 in Snow Light Snow
4:44 PM 33.8 °F 23.2 °F 30.2 °F 87% 30.01 in 6.0 mi NNW 17.3 mph 26.5 mph 0.01 in Snow Light Snow
4:52 PM 32.0 °F 20.1 °F 30.0 °F 92% 30.08 in 6.0 mi NNW 19.6 mph 26.5 mph 0.01 in Snow Light Snow
5:52 PM 33.1 °F 22.6 °F 28.9 °F 85% 30.09 in 3.0 mi NNW 16.1 mph 24.2 mph 0.00 in Snow Snow
6:52 PM 33.8 °F 23.2 °F 28.4 °F 81% 30.04 in 9.0 mi NNW 17.3 mph - N/A Snow Snow
7:52 PM 33.1 °F 23.0 °F 28.0 °F 82% 30.12 in 9.0 mi NNW 15.0 mph 21.9 mph 0.00 in Snow Snow
8:52 PM 33.1 °F 22.6 °F 28.0 °F 82% 30.14 in 9.0 mi NNW 16.1 mph - 0.00 in Snow Snow
9:52 PM 33.1 °F 23.0 °F 27.0 °F 78% 30.16 in 9.0 mi NNW 15.0 mph - 0.00 in Snow Snow
10:52 PM 33.1 °F 22.6 °F 27.0 °F 78% 30.16 in 9.0 mi NNW 16.1 mph - 0.00 in Snow Snow
11:52 PM 32.0 °F 22.1 °F 27.0 °F 82% 30.17 in 9.0 mi NNW 13.8 mph - 0.00 in Snow Snow